Find Starlink 32151

NORAD ID: 60299 Int'l Des: 2024-132 Owner: SPXS Country: US Constellation: starlink operational
LEOCIRCULAR

Live-Position

3D-Globus wird geladen...

Über Starlink 32151

Beschreibung wird geladen...

Nächste Überflüge

Passes for default location (London). Set your location on the main map for personalized predictions.

Höhenverlauf

Loading altitude history...

Zweizeiliger Elementsatz

1 60299U 24132X 26107.26944083 .00000270 00000-0 21250-4 0 9993
2 60299 53.1611 204.7848 0000957 86.1927 273.9183 15.30188835 97867
Epoch: 17. Apr. 2026 • Age: 9 hours

Aktueller Status

Höhe 491.0 km
Geschwindigkeit 7.62 km/s
Subsatellitenpunkt -44.98°S, 75.09°E
Startdatum 28. Juli 2024
Alter 1.7 years
Typ internet

Technische Details

Klassifizierung Payload
Masse 730.00 kg
Trockenmasse 700.00 kg
Gesamtmasse 730.00 kg
Länge 0.30 m
Durchmesser 4.10 m
Spannweite 29.00 m
Form Box + pan
Hersteller SPXS
Bus-Typ Starlink V2M
Phasenstatus In Orbit
Besitzer/Staat SPXS/US

Most Searched